Location: Eurasberg
(48.3353°N, 11.0839°E)
Time: 13:53:59
(UTC+00:00)

Timation 1 Rocket - Pass Details

Date: 20 April 2026
Orbit: 895 x 908 km, 70.0° (Epoch: 14 May)

Event Time Altitude Azimuth Distance (km) Brightness Sun altitude
Exits shadow 01:17:43 30° 277° (W) 1,569 5.3 -24.3°
Maximum altitude 01:19:32 36° 312° (NW) 1,395 5.3 -24.1°
Drops below altitude 10° 01:25:04 10° 19° (NNE) 2,603 7.7 -23.6°
Sets 01:27:48 0° 28° (NNE) 3,548 8.9 -23.3°
